STARLINK-1742 (46376 NORAD) Tracking and Keplerian Element Data

This shows tracking and keplerian element data for the satellite.

Feedback or suggestion? Click here.




ElementValue
Catalog46376
NameSTARLINK-1742
Epoch Orbit178
Epoch Day268.91668981
Epoch Year2020
RAAN324.4592
Inclination53.0004
Eccentricity0.0001211
Argument of Perigee64.1731
Mean Anonmoly162.4616
Mean Motion15.62816604
Decay Rate-0.00067119
L11 46376U 20062BD 20268.91668981 -.00067119 00000-0 -73140-3 0 9996
L22 46376 53.0004 324.4592 0001211 64.1731 162.4616 15.62816604 1787

Live tracking and technical data element details for STARLINK-1742 (NORAD 46376). STARLINK-1742 can be tracked NOW for your location showing map with azimuth and elevation plus other details from your city location.

Track the satellite on the map from your city or location and see movement details for azimuth, elevation, latitude, longitude, range, height, and movement on the map or in text.







IsCatalogInMostPopularTable: catalog: 46376, numindb: 5
Update: records affected: 1



GetName: 46376 STARLINK-1742

Hit Count: updated at: Mon, 28 Sep 2020 21:28:32 GMT